FENGYUN 1C DEB, 30574

Orbit data source: Space-Track

FENGYUN 1C DEB, 30574 is space debris in SSO originally from a launch on Mon, 10 May 1999 UTC launched from the Taiyaun Space Center, China (TSC). Fengyun 1C debris stems from the Chinese weather satellite Fengyun-1C, which was intentionally destroyed by a Chinese anti-satellite missile in 2007. This event dramatically increased the amount of space debris, with thousands of trackable fragments posing hazards to satellites and human spaceflight. The Fengyun 1C debris cloud has become a focal point in discussions about space sustainability and the need for international regulations to prevent the creation of new debris.

Loading next visibility...
Identifier
30574, 1999-025ALQ
Orbit
SSO
Country
Flag of CNCN / PRC
Related business
Manufacturer
Unknown
Mission
Spacecraft
Bus & Motor
Unknown
Mass
Unknown
Launch date (UTC)
1999-05-10 (27 years ago)
Launch vehicle
Unknown
Launch site
Taiyaun Space Center, China (TSC)
Object type
Payload
Rocket body
Debris
Shape & HBR
Unknown shape, 0.1 m
Radar Cross Section
Small (<0.1 m²)

Expand to show TLE details & history
Last TLE update: 1 day ago

TLE from 1 day ago
0 FENGYUN 1C DEB
1 30574U 99025ALQ 26037.42803716  .00004757  00000-0  39841-2 0  9993
2 30574  99.3039 204.9216 0221994 201.2278 157.9551 13.77955100945354
Epoch: 2026-02-06T10:16Z
TLE epoch observation values (Epoch: 2026-02-06T10:16:22.410Z)
Latitude
-0.00011°
Longitude
-85.73781°
Altitude
1,125.732 km
Speed
7.214 km/s
True Right ascension
13h 39m 41s
True Declination
0° 00' 00"
Sunlit
Object was in daylight at epoch
Visualization orbit readout
Latitude
Unknown
Longitude
Unknown
Altitude
Unknown
Speed
Unknown
Apparent Right ascension
Unknown
Apparent Declination
Unknown
Sunlit
N/A
Visualization observer readout
Local Sidereal Time
14:50:37
Azimuth
Unknown
Elevation
Unknown
Doppler factor
Unknown
Orbital elements
Apogee altitude
1,131.479 km
Perigee altitude
805.302 km
Semi-major axis
7,346.528 km
Eccentricity
0.0222
Inclination
99.3039°
RAAN
204.9216°
Arg. of periapsis
201.2278°
True anomaly
158.88589°
Mean anomaly
157.9551°
Eccentric anomaly
158.42286°
Mean motion
3.44683 °/min
Orbital period
104.44 mins
BSTAR
0.0039841
Loading maneuver chart data...
Computing Atmospheric mass density...

Documentation

Showing up to 5 results
|